Theta_e
307 309 309 309 309 309 309 309 309 309 310 309 311 311 310 309 312 314 314 315 319 321 323 327 326 326 326 327 328 321 320 323 325 328 327 329 331 329 330 333 333 332 333 334 336
308 308 308 308 308 308 308 308 309 309 310 309 309 311 311 311 310 311 312 313 316 318 324 327 327 327 328 328 328 321 321 323 323 325 326 329 330 329 332 333 333 331 335 335 334
305 305 306 307 307 307 307 307 309 309 309 310 308 310 311 310 309 308 307 312 312 316 320 326 327 327 328 327 327 323 320 321 322 322 324 327 329 329 331 333 332 332 337 334 335
305 305 305 306 307 307 307 306 308 309 309 309 308 309 310 309 306 313 314 309 311 314 320 323 327 329 329 330 326 329 327 320 320 320 325 326 327 329 329 331 329 330 335 332 333
305 305 304 306 307 306 306 307 308 309 309 309 308 309 309 308 309 304 310 311 313 318 321 323 328 327 330 328 327 328 328 325 319 319 324 325 326 328 329 328 327 332 334 332 331
304 304 305 306 306 306 306 307 308 308 308 309 309 308 308 309 306 307 307 308 308 316 320 321 327 326 327 327 327 327 327 327 322 320 322 326 326 328 328 326 330 337 334 332 332
305 305 305 306 306 306 307 307 308 308 308 309 309 308 308 308 307 308 309 309 310 313 319 320 324 325 326 327 325 326 326 323 324 324 320 324 327 327 327 326 334 334 334 333 332
306 306 306 306 307 307 307 307 307 308 308 308 308 307 307 306 307 307 306 311 312 314 317 320 323 325 326 325 326 325 324 329 327 326 322 325 325 325 326 326 332 332 333 334 333
306 306 306 306 306 306 307 307 306 303 308 309 308 307 308 305 307 307 308 309 314 316 317 320 322 326 324 328 328 326 328 328 330 328 324 327 326 322 326 328 330 331 333 334 333
307 307 307 307 306 305 307 306 305 308 308 305 306 308 305 307 307 310 308 310 313 315 318 319 322 326 327 328 332 328 330 328 330 329 323 327 327 322 327 329 330 330 332 333 333
307 307 307 306 305 306 306 306 309 307 306 307 307 307 307 307 308 312 310 312 313 312 321 319 328 329 328 328 326 324 328 329 327 328 327 325 327 324 327 328 328 329 331 333 332
306 306 306 305 304 305 305 307 307 305 306 305 306 307 305 306 311 312 312 314 314 313 311 322 326 325 325 327 327 326 327 328 327 327 327 325 326 324 327 327 327 329 329 331 329
304 304 304 303 302 305 308 308 305 306 307 307 307 308 308 309 311 313 312 311 310 311 313 319 324 325 326 327 327 329 328 328 331 326 327 324 326 326 324 326 327 327 328 328 327
303 303 302 303 307 307 308 306 304 304 309 310 311 311 312 313 313 311 312 313 313 313 315 321 322 326 326 327 326 331 327 327 328 329 335 325 333 327 325 324 326 327 326 328 325
304 304 304 305 306 307 307 304 304 305 312 311 309 306 310 313 313 315 311 314 318 319 319 319 324 326 327 327 325 328 327 330 330 328 331 329 328 328 326 327 323 324 327 326 326
303 302 302 307 307 307 303 304 305 311 315 310 309 309 312 315 315 316 315 313 314 316 315 315 315 323 325 323 324 319 323 322 320 327 334 333 331 331 328 327 326 323 325 327 326
303 302 302 304 307 305 303 307 312 314 309 310 309 309 311 317 318 316 315 318 318 319 318 312 313 315 317 320 318 322 326 325 326 327 333 332 331 332 327 325 326 323 323 324 325
303 302 305 305 305 303 305 308 313 308 308 307 309 311 313 314 318 318 316 316 317 316 318 320 319 316 317 318 319 323 326 327 332 331 326 323 334 332 327 325 323 323 322 323 324
302 304 305 306 303 302 309 310 309 307 306 308 308 315 314 315 316 318 319 318 317 317 320 320 317 310 316 316 319 319 326 320 321 314 324 324 325 318 316 315 319 315 314 320 322
300 304 304 304 301 306 306 308 305 306 306 307 312 313 317 315 318 318 319 316 316 315 316 315 319 309 315 315 315 319 317 321 319 329 331 326 325 323 318 319 316 313 311 311 312
303 305 306 301 305 305 307 304 304 306 305 306 309 311 314 317 316 317 316 315 315 314 315 315 318 313 312 316 317 318 319 320 322 322 330 326 320 306 314 314 315 315 309 309 310
305 301 305 304 304 301 304 304 305 306 306 306 307 308 311 314 315 317 317 315 312 314 317 315 316 318 316 311 310 318 319 321 326 324 316 317 322 306 307 307 308 309 310 308 309
298 306 304 305 306 303 301 305 306 306 306 306 309 309 307 311 313 314 313 312 313 314 315 314 315 316 317 315 312 317 318 319 320 319 322 324 318 305 308 308 307 307 308 308 308
302 302 301 300 302 304 302 302 304 306 306 306 308 309 311 310 311 313 311 312 312 312 311 310 314 319 318 316 316 317 317 318 321 323 322 320 319 310 308 308 307 306 307 307 308
298 296 294 301 300 303 304 305 306 305 306 307 308 310 310 310 311 311 312 311 311 310 310 309 315 313 313 312 313 316 318 318 321 320 323 322 321 307 305 306 306 306 307 307 308
298 299 296 296 299 303 304 302 305 305 305 306 308 308 309 310 310 310 310 310 311 310 310 308 314 313 312 312 313 314 315 317 318 318 320 319 319 310 309 306 306 307 306 306 307
298 297 301 298 300 303 302 303 303 305 305 305 306 307 307 307 305 306 307 308 309 311 310 311 311 314 315 311 313 314 311 314 318 317 317 320 318 316 317 316 309 306 307 306 305
Wind_Speed
13 14 14 15 15 15 16 17 17 17 16 16 16 16 16 18 19 19 19 16 12 20 12 9 13 11 5 4 6 3 4 6 12 11 16 5 5 3 4 6 5 4 7 18 31
15 15 16 16 16 17 17 18 17 17 17 16 17 16 17 18 20 26 25 24 21 18 10 16 11 13 5 3 4 6 4 6 8 11 12 7 7 7 3 8 5 9 16 29 31
16 17 17 17 17 18 18 18 18 17 17 17 16 17 17 14 16 14 25 24 29 24 19 22 14 15 12 5 5 5 7 6 12 15 9 8 6 8 5 8 8 14 16 19 24
17 18 18 19 18 18 18 18 19 18 17 17 16 16 15 8 9 3 10 25 24 25 20 19 13 12 11 16 9 5 10 10 18 16 6 6 7 8 8 2 12 15 21 18 14
20 19 19 19 18 19 19 19 19 19 17 17 15 15 10 9 13 31 15 12 10 24 28 20 16 16 19 17 11 13 12 15 15 14 7 8 13 7 11 3 4 20 21 19 16
21 20 19 20 19 20 20 20 19 18 18 17 14 14 9 20 20 27 30 25 24 21 29 26 12 14 12 15 19 5 14 20 18 10 6 6 11 5 7 8 10 21 18 19 19
20 21 23 21 21 21 21 21 19 18 18 17 16 14 14 23 8 12 20 24 25 24 23 32 23 16 7 18 6 10 3 12 19 14 8 8 10 12 6 10 15 14 15 17 17
26 26 25 22 21 21 21 21 20 19 18 18 17 17 18 12 23 32 34 21 24 25 27 31 31 14 8 8 13 10 4 7 14 16 10 11 11 14 10 10 14 12 13 16 18
30 27 23 21 20 20 19 20 21 21 20 20 19 14 15 13 22 39 31 29 16 23 23 28 28 11 8 13 6 6 9 20 15 16 9 11 6 11 13 13 13 14 15 15 15
25 21 18 16 16 16 17 19 21 16 7 7 10 5 5 14 19 21 30 27 11 13 12 11 11 16 7 16 18 15 24 14 21 11 14 9 14 9 17 16 16 16 16 16 16
15 9 9 9 11 12 13 8 2 3 1 5 12 11 22 20 21 12 23 18 14 3 13 21 14 21 34 29 23 13 15 18 15 15 11 12 14 16 14 11 13 15 15 17 18
13 8 6 7 8 8 8 3 4 5 10 15 21 19 28 14 6 12 22 11 10 11 12 14 23 26 16 17 24 18 16 23 9 16 5 11 17 17 11 10 12 16 16 16 15
13 10 7 6 8 5 5 4 10 13 6 7 5 8 6 15 8 4 14 7 11 11 20 16 13 13 23 22 16 13 23 17 11 4 12 6 16 17 11 10 11 10 15 15 18
11 9 9 9 5 7 2 8 14 11 4 4 3 0 4 2 7 9 7 5 7 20 22 15 14 25 22 19 16 12 11 17 13 17 12 10 6 18 16 10 11 12 9 16 17
12 12 13 7 8 5 6 13 12 3 4 4 2 6 3 5 3 3 12 12 13 3 8 3 4 27 24 26 21 7 7 5 11 13 8 6 2 9 18 20 12 14 13 10 19
13 14 14 5 7 4 14 11 2 2 5 6 4 8 4 4 6 4 0 2 1 6 9 3 4 5 6 11 16 9 10 6 4 3 7 14 13 12 17 24 18 17 16 12 10
16 18 17 7 4 12 13 2 2 3 6 9 5 6 7 4 4 3 3 3 1 3 3 6 6 3 4 13 7 4 11 2 3 3 3 15 10 13 15 10 16 19 19 18 12
19 18 8 6 9 14 4 3 2 3 4 5 5 8 5 7 4 7 5 3 5 5 3 3 1 5 3 6 8 11 8 4 5 5 4 5 12 12 23 12 7 14 21 19 19
19 10 7 4 9 5 2 3 4 4 7 9 10 4 4 3 5 5 3 2 2 2 4 3 2 5 5 2 8 3 4 2 1 1 4 5 5 6 5 6 7 6 7 18 15
14 7 4 4 9 3 3 2 2 2 5 3 4 6 5 6 4 3 3 2 4 2 2 2 4 3 3 5 5 3 8 4 1 4 4 6 3 5 7 13 8 9 8 6 4
4 3 1 14 3 4 2 2 3 3 1 2 4 4 4 4 3 1 5 2 4 3 5 1 1 4 2 1 5 4 5 2 1 1 1 3 4 4 5 3 8 8 7 7 6
3 2 5 3 4 2 1 2 4 6 3 3 3 3 4 5 4 2 2 4 4 3 4 2 3 3 2 2 4 2 4 5 3 4 1 2 3 5 5 5 5 6 7 7 7
1 2 4 5 2 2 3 4 4 7 7 6 4 3 3 4 2 3 3 6 4 3 3 4 2 3 3 0 3 3 4 6 6 2 4 3 0 3 4 4 4 3 5 8 8
2 2 3 4 4 3 1 4 5 3 3 7 5 2 3 4 5 3 3 5 4 4 12 5 2 0 2 2 3 4 6 6 5 3 4 6 2 3 5 5 4 4 3 5 7
3 1 1 2 3 3 2 1 5 7 5 9 5 13 3 4 5 5 5 3 5 6 4 2 2 3 3 3 4 1 9 11 11 12 2 1 4 6 5 6 4 3 5 6 5
3 3 2 2 3 2 3 3 4 5 7 5 5 10 11 6 6 5 5 5 3 4 3 1 1 1 1 4 3 2 3 9 12 12 12 16 12 4 2 4 5 4 4 5 5
2 2 1 1 1 2 0 1 3 5 3 5 7 3 6 5 6 6 4 2 3 1 1 2 1 1 3 2 2 4 5 8 8 7 13 14 12 7 8 9 2 5 2 2 4
Wind_Direction
317 319 318 315 314 311 307 302 297 296 293 294 298 301 307 298 302 284 261 237 224 252 278 235 209 194 180 247 259 289 251 231 238 247 265 110 145 298 31 113 87 60 27 135 153
317 316 314 312 312 312 308 301 296 293 289 291 292 294 297 310 304 282 265 254 247 248 248 217 190 185 161 218 225 215 226 218 256 252 270 181 196 165 159 142 158 103 95 126 152
314 310 308 310 308 307 307 301 295 289 286 284 291 292 294 313 300 280 267 244 244 237 241 213 200 175 202 153 228 237 243 227 250 268 323 331 222 166 182 198 179 155 140 145 165
311 308 307 306 306 306 306 299 292 287 286 278 288 290 291 298 262 7 39 224 233 228 224 242 209 191 199 199 198 255 268 254 266 277 302 291 285 199 195 231 173 161 147 153 169
306 304 302 301 304 303 301 296 291 287 285 275 286 290 289 253 239 255 257 294 280 227 215 217 212 192 205 202 203 218 265 268 268 257 279 296 283 226 196 210 243 142 143 161 173
304 302 299 302 304 302 299 296 292 287 282 278 279 285 261 254 263 253 266 275 262 254 224 216 217 199 205 209 204 147 230 264 269 282 224 252 263 272 224 157 120 136 149 167 176
300 298 297 298 297 297 297 294 291 284 279 276 275 273 252 244 230 278 267 255 252 238 230 225 227 194 134 197 174 222 291 298 263 259 249 206 268 242 214 154 140 150 155 171 181
299 298 296 295 295 293 294 294 291 282 279 276 274 270 261 269 258 261 258 264 236 243 235 232 224 231 162 111 158 180 112 247 253 230 246 174 245 224 186 170 157 162 168 177 185
302 297 295 291 294 297 296 296 290 290 284 279 274 238 265 283 245 246 239 232 238 242 237 226 216 227 135 161 164 173 212 215 238 215 214 193 235 237 185 184 171 174 175 177 188
309 296 290 289 293 299 301 300 305 297 297 280 242 246 270 262 250 245 225 216 224 240 210 217 221 198 179 176 200 187 201 199 211 217 213 196 245 241 182 183 181 182 173 177 189
333 310 289 291 296 301 311 334 323 330 159 240 256 240 287 295 259 230 204 187 205 243 208 209 205 196 196 198 192 170 194 202 214 216 223 225 231 251 175 183 192 182 176 179 191
6 5 334 309 299 297 314 277 52 306 290 239 250 239 252 274 287 239 174 177 190 236 276 206 214 207 178 176 200 195 192 208 214 219 245 231 226 231 184 198 207 185 183 179 174
20 17 356 332 310 312 277 43 345 354 270 277 227 245 223 217 225 255 177 169 181 233 246 232 216 184 185 179 195 192 203 197 194 166 223 309 249 221 215 182 210 225 184 176 177
4 0 340 331 310 345 336 337 335 0 284 260 201 337 257 201 227 178 188 193 171 224 243 214 230 185 180 178 181 195 207 198 158 175 204 191 240 217 205 193 199 217 210 178 178
3 2 356 345 316 321 313 329 329 112 287 29 303 308 261 233 89 240 173 205 194 148 160 194 209 166 175 184 175 196 152 210 181 190 170 204 255 209 200 215 197 205 220 202 182
341 341 343 346 307 289 320 319 45 232 255 349 326 344 294 232 165 98 178 75 57 42 44 19 350 154 181 159 163 123 102 67 52 152 213 188 214 227 204 201 196 197 204 211 191
326 327 320 283 281 308 327 247 328 241 8 348 330 334 307 345 141 62 70 81 48 87 73 18 345 4 127 99 109 149 138 116 167 185 223 182 197 227 204 211 197 195 196 199 206
321 327 320 251 274 309 302 27 276 15 348 349 313 300 24 344 39 125 124 34 36 64 96 119 264 359 343 117 163 152 148 170 160 182 153 147 226 217 225 255 275 206 194 194 191
327 328 294 284 294 290 260 27 6 346 333 323 307 304 351 12 24 29 104 93 37 70 79 93 32 294 35 117 143 169 158 59 277 222 105 198 260 314 200 254 237 232 146 196 187
324 310 253 273 310 229 62 63 285 261 296 286 312 356 2 355 31 9 156 8 113 61 209 149 113 10 20 63 27 104 138 113 280 160 199 195 221 221 189 216 201 206 199 187 165
309 344 329 337 21 47 50 4 294 272 315 303 322 310 353 12 19 121 7 21 84 128 103 142 110 8 15 191 164 135 137 163 182 201 242 117 253 9 263 237 210 214 184 162 151
340 353 329 31 38 42 70 217 294 0 191 289 253 293 341 2 6 42 105 18 6 174 90 79 81 100 39 324 312 355 166 160 169 176 233 144 290 343 23 49 65 41 132 136 121
49 270 337 359 87 52 327 330 306 3 2 355 324 18 317 355 2 22 21 7 17 41 127 154 151 116 121 148 4 221 190 195 120 75 204 119 230 283 92 59 29 93 139 128 128
72 7 347 36 329 131 13 360 318 30 8 353 358 2 325 358 3 31 49 15 1 70 66 59 112 271 111 1 114 190 177 183 176 177 165 191 3 84 60 68 51 76 104 113 128
31 106 156 21 35 342 339 224 22 10 327 22 16 17 26 2 358 21 9 20 19 89 44 63 115 130 87 350 348 230 178 180 207 220 223 124 224 52 38 30 30 69 107 112 130
125 140 202 159 268 261 342 335 35 14 19 12 21 26 27 39 18 359 348 18 19 39 67 294 63 98 80 28 25 330 319 217 221 236 242 272 276 123 24 38 347 73 101 142 177
143 131 299 252 297 275 90 297 10 327 84 32 347 48 26 357 319 316 322 17 326 18 69 36 123 124 82 6 280 294 219 213 207 234 231 236 244 280 313 308 0 65 125 218 203